Tracking 17152 objects as of 3-May-2015
HD Live streaming from Space Station

NAVSTAR 30 (USA 88)

Track NAVSTAR 30 (USA 88) now!
NAVSTAR 30 (USA 88) is classified as:


NORAD ID: 22446
Int'l Code: 1993-007A
Perigee: 21,286.6 km
Apogee: 21,415.0 km
Inclination: 55.3 °
Period: 765.6 minutes
Semi major axis: 27721 km
RCS: 2.5118 m2 (large)
Launch date: February 3, 1993
Source: United States (US)
PRN:
Your satellite tracking list
Your tracking list is empty





NASA's NSSDC Master Catalog

Two Line Element Set (TLE):
1 22446U 93007A   15121.41786249 -.00000087  00000-0  00000+0 0  9993
2 22446 055.3355 027.0067 0023174 320.8273 220.0942 01.88092217157594

Source of the keplerian elements: AFSPC

N2YO: 3366